Location: Br�ttisellen
(47.4227°N, 8.6287°E)
Time: 06:03:43
(UTC+00:00)

Meteor 2-10 Rocket - Pass Details

Date: 09 April 2020
Orbit: 734 x 884 km, 81.2° (Epoch: 29 May)

Event Time Altitude Azimuth Distance (km) Brightness Sun altitude
Exits shadow 20:33:48 54° 115° (ESE) 959 3.6 -22.7°
Maximum altitude 20:34:14 56° 95° (E) 944 3.6 -22.7°
Drops below altitude 10° 20:39:34 10° 19° (NNE) 2,422 6.4 -23.4°
Sets 20:42:03 0° 15° (NNE) 3,383 7.2 -23.7°
